Wind_Speed
10 17 11 6 6 5 7 8 9 9 10 9 6 8 10 10 8 5 6 9 9 10 11 11 11 12 11 11 11 11 12 10 8 7 6 6 5 5 4 5 6 6 6 7 7 7 7 7 11 15 14 17 19 23 25 24 24 23 23 23 23 23 23
9 11 10 9 8 8 6 7 7 9 12 11 6 4 5 8 9 5 10 16 13 9 9 10 12 13 12 13 12 10 10 10 8 7 6 7 7 5 5 5 6 4 4 5 6 8 13 14 14 15 14 17 18 20 24 24 24 24 23 23 22 22 22
8 6 6 7 9 14 11 2 4 6 9 9 7 2 5 8 8 5 11 16 11 7 8 11 13 13 13 14 13 10 9 9 8 8 7 6 8 7 6 7 5 4 5 5 3 4 11 17 19 17 17 18 16 16 20 22 23 24 23 22 22 22 22
9 7 5 6 8 12 12 7 6 8 7 7 7 6 5 7 5 5 9 10 5 4 8 12 13 13 13 14 13 11 10 9 8 7 8 7 8 7 4 6 7 7 7 5 2 6 10 12 14 14 15 16 14 15 18 19 20 21 22 22 22 22 22
7 6 8 10 9 10 10 7 6 9 7 5 5 7 6 7 5 4 8 7 5 5 7 11 13 12 12 14 13 11 11 10 9 7 7 8 9 6 5 6 8 8 7 6 4 10 11 9 9 9 11 12 12 14 16 17 18 19 20 20 21 22 22
6 8 12 9 5 5 8 8 8 9 9 5 5 7 9 8 5 3 8 7 6 6 6 8 11 12 12 13 12 12 12 11 9 7 7 8 9 10 8 7 7 8 10 13 8 2 5 5 6 7 10 11 11 12 13 13 14 16 17 17 17 18 21
4 5 9 5 1 5 7 8 8 8 8 7 7 6 6 7 2 6 8 8 5 5 6 8 9 11 13 12 12 13 12 11 10 9 9 9 9 10 11 9 8 10 11 15 16 12 7 5 3 2 6 8 7 7 9 8 7 9 13 15 15 14 15
1 3 4 2 4 5 6 6 5 7 9 9 6 3 4 2 5 8 6 6 6 6 7 9 9 10 12 12 12 13 12 10 10 11 10 10 10 10 10 10 9 11 13 11 13 14 13 12 10 7 2 3 3 2 4 7 5 4 7 10 14 15 15
5 5 3 4 6 5 5 7 5 7 7 4 6 5 4 4 2 5 5 4 6 7 7 9 9 10 11 11 11 11 11 11 10 10 9 9 10 10 10 10 9 10 12 11 10 11 13 14 12 11 9 6 6 7 6 6 5 3 4 5 11 16 16
5 4 2 4 7 5 4 6 5 5 5 6 6 4 3 4 4 2 7 7 7 9 8 9 10 11 11 11 10 9 9 10 10 9 9 9 9 10 11 11 10 10 10 12 12 12 14 15 14 14 14 11 8 8 8 7 6 5 4 4 5 8 10
1 0 4 5 3 5 8 10 7 4 5 7 5 4 3 2 4 6 9 13 14 13 12 11 10 11 11 11 11 9 8 9 10 9 9 10 9 9 10 10 10 10 11 12 14 15 15 16 15 16 17 18 16 12 11 9 9 8 7 6 4 1 3
3 2 5 5 4 5 11 15 8 3 5 7 6 5 4 2 5 5 9 16 17 15 14 13 12 11 10 10 10 9 8 8 9 9 10 11 10 10 11 11 11 11 11 12 14 16 17 16 16 18 20 21 22 21 17 13 11 10 9 9 6 3 2
5 2 5 5 5 8 2 5 3 1 5 7 7 8 9 5 4 8 11 13 14 14 15 14 13 11 11 10 10 9 9 9 10 10 10 11 11 11 11 11 11 12 11 12 14 16 17 17 16 18 20 19 19 21 20 14 12 12 11 11 9 5 5
4 3 5 5 5 6 4 3 2 1 4 6 8 10 9 2 10 14 14 13 12 12 13 14 12 11 10 9 9 9 10 9 10 10 10 11 11 11 11 11 11 11 12 13 15 16 17 17 17 16 15 15 16 17 16 14 13 14 12 12 12 9 9
5 5 5 5 6 5 4 4 3 1 5 7 5 6 5 2 11 15 16 15 11 9 12 13 10 9 9 9 9 9 9 9 10 10 9 10 10 11 11 11 11 11 12 14 15 15 16 16 16 15 14 14 14 12 10 12 13 14 13 13 13 13 13
6 7 8 8 8 6 7 10 6 4 8 7 4 5 5 5 12 15 15 13 9 9 12 12 10 9 9 10 10 8 6 7 9 11 10 10 10 10 11 11 11 11 12 13 15 15 15 15 15 16 15 15 13 11 11 12 14 15 16 17 17 16 17
7 9 8 7 7 7 7 10 9 8 8 7 6 7 3 6 13 14 10 9 10 11 12 12 11 11 10 9 9 7 6 7 8 8 10 10 9 10 10 10 11 11 12 13 14 14 15 15 15 15 15 15 14 14 14 13 14 17 17 18 18 18 16
7 10 6 4 6 7 4 4 7 11 11 10 10 6 5 5 8 11 9 11 14 13 12 12 13 11 9 9 10 8 5 6 7 7 7 9 8 9 10 10 10 11 12 13 14 14 14 14 14 14 14 14 14 14 14 14 15 17 18 17 18 17 16
7 7 3 5 6 4 1 4 3 3 7 8 5 7 9 6 9 14 14 14 15 13 12 12 12 13 11 9 10 9 5 4 6 6 5 7 7 7 8 9 10 11 13 13 13 14 14 14 14 14 14 15 14 14 14 14 14 16 17 17 18 18 17
5 5 5 5 2 1 3 5 5 4 4 4 6 10 9 5 9 14 15 14 13 13 13 11 11 12 11 8 7 8 3 1 3 7 6 6 7 7 7 9 11 12 12 12 12 12 12 13 14 14 14 14 14 14 14 13 14 15 16 17 18 18 18
5 7 7 4 1 2 3 4 3 2 3 4 5 6 6 5 8 11 13 14 13 12 14 14 12 12 11 7 5 9 7 1 2 6 7 5 6 8 7 9 12 12 12 11 11 11 11 13 14 14 13 14 14 15 15 15 14 15 16 17 17 17 17
5 6 7 6 5 5 6 7 6 4 2 1 2 5 7 8 9 10 12 14 14 13 13 14 14 12 9 7 5 9 12 6 2 4 6 6 6 7 7 9 11 12 12 11 11 12 12 14 14 13 12 12 13 14 15 16 15 15 15 17 17 17 16
5 5 6 6 5 3 2 8 8 3 2 5 4 4 6 8 10 12 12 13 13 13 12 13 12 9 7 7 5 5 9 8 5 4 4 5 6 6 7 10 10 10 10 10 11 12 12 14 15 14 12 12 13 13 14 14 14 14 14 15 15 16 16
6 6 5 5 3 2 6 10 8 5 7 7 3 5 6 10 11 11 11 11 9 7 7 9 7 4 4 6 6 5 6 5 5 4 3 4 5 6 8 10 10 9 9 10 11 11 12 13 14 14 14 14 13 13 12 12 12 13 13 14 14 14 15
7 6 6 4 2 5 8 10 8 7 7 5 5 3 4 10 11 8 9 9 6 4 4 6 6 5 7 7 5 6 6 3 2 3 3 3 4 6 8 9 8 8 9 10 11 11 12 13 13 13 14 14 13 13 12 11 11 11 11 12 13 14 14
6 6 6 4 3 5 6 8 9 6 3 3 2 3 4 7 9 7 6 6 9 8 7 8 6 5 9 8 5 5 6 3 1 1 2 3 4 6 7 7 7 9 9 10 11 12 13 13 13 13 13 13 12 12 12 11 11 11 11 11 12 13 13
6 6 7 5 3 5 7 8 6 2 1 2 5 6 6 6 6 5 6 9 9 6 6 8 5 4 7 7 5 5 4 2 2 3 4 5 5 6 7 7 9 10 9 9 11 12 13 13 13 12 12 12 12 11 12 12 12 11 10 11 11 11 12
4 5 4 1 2 5 7 6 5 5 5 5 6 6 7 7 5 4 6 9 8 5 5 5 3 2 3 4 5 5 2 1 3 5 6 6 6 7 8 9 10 10 9 9 10 11 11 12 13 12 12 12 12 12 12 12 13 12 11 10 10 10 11
2 1 2 2 3 6 7 6 7 10 9 6 5 6 6 6 6 5 6 9 9 6 4 2 1 0 2 3 4 3 2 3 5 5 5 6 7 7 8 9 11 11 11 11 10 10 11 12 13 13 13 13 13 13 13 13 13 13 12 11 9 9 10
1 3 4 5 4 5 8 8 8 9 8 5 5 4 5 6 6 4 5 9 10 7 3 1 1 1 2 2 2 2 3 4 4 5 5 6 7 8 8 10 11 12 12 12 12 12 12 12 12 12 13 13 13 14 13 13 13 14 14 13 11 10 9
2 3 6 7 7 6 8 8 8 8 7 5 3 2 3 8 8 5 5 8 9 8 4 2 2 1 1 2 2 3 3 3 4 5 6 6 7 8 9 10 10 10 11 12 13 14 14 14 14 14 13 14 14 14 15 14 14 14 15 14 13 11 10
4 2 5 6 5 6 6 6 6 7 6 5 4 4 5 8 8 7 7 6 6 6 6 4 3 2 2 2 2 1 1 2 4 5 6 7 8 9 9 10 9 9 9 11 13 14 15 16 16 16 16 15 15 15 15 15 15 15 14 14 13 12 11
6 4 6 6 4 4 5 6 6 7 9 9 8 7 6 7 7 6 5 3 3 4 5 4 3 2 2 2 2 2 2 3 4 4 6 7 8 9 9 9 10 9 10 10 12 13 14 16 17 18 18 18 17 16 15 15 14 14 14 14 15 14 11
3 2 1 3 3 3 5 6 7 6 10 12 11 9 7 7 6 6 5 4 3 3 4 4 4 3 3 2 1 1 2 3 4 5 7 8 8 9 9 10 10 10 10 11 11 12 14 16 18 19 20 19 18 17 16 15 14 15 15 15 15 14 11
2 4 7 5 3 2 1 2 4 3 5 8 9 9 8 6 6 6 5 5 5 4 5 6 5 3 3 4 3 2 3 3 4 5 7 8 8 9 10 10 10 10 11 11 12 13 14 15 18 20 21 20 19 18 16 15 15 15 16 16 15 13 12
2 1 4 5 4 2 1 1 2 3 4 5 7 9 7 7 8 9 8 6 5 3 4 5 6 6 7 6 4 3 3 3 5 5 6 7 8 9 9 9 10 10 11 12 13 13 13 14 17 19 20 20 20 19 17 16 16 16 16 16 15 12 11
2 1 1 3 5 3 1 2 3 4 5 5 5 7 8 8 9 9 8 9 9 8 5 4 7 7 5 3 2 2 3 4 5 6 5 6 7 7 8 9 10 10 11 12 13 14 13 14 16 18 18 17 19 18 17 15 15 15 15 15 13 10 9
Wind_Direction
211 209 227 231 223 215 197 211 224 232 245 242 235 230 220 211 207 185 125 112 117 127 132 132 123 117 115 101 92 98 96 97 107 108 119 127 127 140 137 140 142 135 154 156 145 169 187 187 216 241 229 202 189 177 177 185 188 189 190 190 191 192 192
201 202 232 223 220 252 225 188 218 238 249 255 249 254 259 225 207 180 134 136 143 146 140 139 134 122 109 95 86 86 82 84 91 88 98 111 109 105 92 104 120 114 132 132 127 178 191 185 203 233 229 214 206 185 180 186 188 191 192 191 192 192 192
178 176 250 237 223 246 248 264 304 256 242 244 221 216 288 240 205 158 138 142 143 147 145 145 140 123 107 97 91 81 63 61 67 55 55 94 116 103 68 71 87 66 56 66 81 185 199 195 196 207 212 212 210 197 190 190 193 196 195 194 194 192 193
174 163 218 228 217 240 255 283 284 247 247 261 221 201 251 249 219 153 146 143 121 122 138 136 127 115 107 98 92 88 70 51 50 42 35 59 94 107 98 79 74 68 59 40 278 221 215 205 192 196 204 202 202 204 196 191 196 202 202 202 199 195 197
171 167 208 218 208 215 228 235 235 224 226 264 244 211 220 252 256 179 146 128 103 106 116 118 113 106 104 100 95 94 85 66 53 42 35 40 51 69 123 113 80 72 59 26 269 224 218 200 180 197 208 197 197 205 197 191 200 207 210 213 209 201 201
199 197 195 204 219 225 223 218 224 223 211 221 245 218 210 235 259 166 140 126 111 111 110 114 115 108 104 105 105 99 90 83 71 52 39 37 35 40 66 93 84 70 38 15 14 172 195 184 183 207 207 194 200 209 200 196 203 206 208 217 224 218 208
215 185 166 168 293 312 285 240 224 222 208 209 225 225 226 227 166 106 129 131 118 129 125 116 116 114 110 108 108 104 96 92 88 77 61 50 45 41 49 63 74 75 52 20 21 35 44 65 88 187 205 196 202 213 214 216 211 200 205 217 233 247 236
172 128 135 207 251 291 282 236 223 234 222 219 235 288 326 268 130 109 118 126 134 151 129 115 116 116 114 112 110 109 105 99 89 82 75 65 59 53 53 57 57 66 69 48 30 29 30 43 54 49 76 157 139 116 210 226 220 176 188 209 221 237 250
203 180 171 220 228 252 248 204 209 249 252 287 317 334 342 301 209 135 129 116 136 147 130 130 138 127 116 111 108 107 106 106 100 89 82 76 72 69 68 66 56 55 61 60 53 46 39 41 43 36 40 72 93 85 114 171 179 150 153 184 208 218 231
208 191 235 235 206 214 246 229 229 258 279 309 321 318 295 287 306 96 122 126 136 143 143 148 145 130 117 107 101 99 95 98 101 97 90 83 77 74 73 73 66 58 57 54 52 52 48 44 38 29 27 33 49 65 77 98 104 96 112 151 199 219 229
336 68 306 294 203 191 222 230 236 258 276 276 274 291 309 8 43 69 120 139 144 148 155 152 137 127 120 113 111 110 106 102 99 97 96 90 83 74 68 68 66 60 57 53 50 50 50 46 41 35 27 19 19 27 39 49 60 68 79 91 99 124 255
294 355 331 320 333 284 227 212 210 222 258 276 274 255 266 14 58 89 138 145 147 153 155 145 132 128 122 118 119 115 110 109 103 100 97 89 85 80 69 62 60 58 55 52 48 49 50 47 42 40 34 24 17 14 14 23 33 36 46 58 59 40 347
218 302 317 294 319 333 300 165 146 219 235 257 268 255 265 311 74 135 154 149 145 147 145 140 138 138 128 121 123 116 104 101 97 93 88 80 76 74 70 63 57 54 52 52 49 48 49 47 45 44 39 34 28 16 4 7 28 28 29 43 40 11 12
229 245 285 280 292 334 11 110 121 328 263 248 251 256 270 348 109 138 150 144 138 136 135 135 134 129 121 117 117 111 104 100 93 83 78 78 74 67 63 61 57 53 48 47 50 52 51 47 45 47 47 43 43 32 4 353 17 28 29 43 40 23 28
283 240 235 259 274 298 307 259 217 241 271 266 266 259 260 111 120 138 142 135 131 131 131 125 117 116 123 127 126 123 123 118 106 91 73 67 67 65 61 54 52 53 49 42 42 48 53 52 44 41 45 45 48 48 23 3 17 30 37 44 39 28 26
273 246 215 224 247 258 267 262 245 222 240 247 248 243 237 150 135 143 147 141 136 140 138 127 123 137 142 137 125 111 104 101 103 104 90 69 57 58 60 54 46 46 46 40 36 37 44 51 47 38 34 36 37 39 34 26 26 31 38 42 39 32 26
263 249 218 216 241 238 244 251 239 225 231 240 232 226 215 130 143 151 154 145 137 142 145 141 145 152 148 136 118 90 69 63 64 79 87 76 60 53 55 55 48 43 41 37 33 31 35 42 45 41 34 31 31 27 24 26 32 34 36 40 40 37 31
268 257 218 193 233 234 243 256 232 218 214 226 230 197 100 89 139 144 139 141 145 149 153 155 152 138 121 119 113 99 101 93 68 61 72 71 62 55 56 55 49 42 38 33 27 25 30 36 39 38 33 30 31 29 24 26 33 35 33 35 37 35 31
270 272 216 201 230 238 8 28 5 228 207 214 203 115 93 86 124 131 134 144 152 158 162 160 144 124 117 125 122 116 124 132 121 113 89 74 71 61 56 61 57 45 35 28 20 17 23 30 32 32 29 26 25 27 27 29 33 36 34 32 31 28 25
254 255 222 217 234 97 76 58 43 45 81 109 111 102 92 94 126 137 143 150 156 158 153 144 129 123 126 126 124 126 121 316 139 121 89 69 72 61 49 57 60 48 32 22 14 11 17 25 25 24 24 23 21 22 22 24 30 34 34 30 26 24 22
234 246 232 209 151 172 169 131 114 105 86 98 130 129 118 123 137 142 148 154 155 147 141 138 137 139 138 135 151 155 141 37 21 94 86 65 63 57 45 50 54 45 27 15 9 7 17 29 23 14 16 19 19 19 16 16 22 28 29 26 22 19 18
214 243 248 222 213 235 209 163 157 202 220 137 143 157 151 151 152 150 150 155 157 155 152 151 150 149 139 139 177 165 141 127 80 81 80 63 55 50 41 42 43 35 21 11 7 5 15 27 16 3 12 19 17 17 13 9 14 20 21 20 16 13 13
222 231 249 230 223 263 156 140 141 161 123 86 101 188 187 167 164 165 164 166 173 174 160 145 151 167 157 143 160 157 134 128 118 83 53 38 38 35 39 39 30 21 14 10 7 3 11 18 5 357 13 21 16 15 11 5 9 13 14 14 11 8 5
243 231 237 234 221 90 112 125 124 114 101 101 160 217 190 167 169 173 175 177 190 198 163 129 133 165 145 134 141 130 122 130 125 103 64 37 23 15 31 33 18 8 12 12 4 1 9 11 358 355 8 10 5 6 3 360 4 7 6 6 4 2 360
240 235 237 236 118 110 132 135 127 120 122 154 203 211 149 156 159 166 182 175 157 158 147 110 92 91 99 113 136 124 109 113 118 94 68 47 28 18 24 24 13 10 13 9 0 359 5 3 355 356 1 356 352 353 350 352 359 360 359 358 357 359 358
243 241 237 222 132 120 143 137 126 131 161 186 158 94 108 143 147 155 169 127 93 100 104 84 78 105 108 108 121 117 103 101 116 83 53 43 31 21 18 19 24 23 12 3 360 358 359 357 355 356 353 345 344 343 339 342 346 348 351 351 351 354 355
237 238 234 223 164 149 157 147 129 112 269 123 109 98 93 102 114 134 126 95 82 91 97 85 83 104 100 93 92 96 98 105 105 82 64 51 32 20 14 15 24 22 8 1 359 352 349 352 351 349 345 342 340 336 333 336 336 334 340 343 344 348 351
243 234 231 229 146 140 142 143 120 92 97 112 114 111 107 103 98 98 103 99 86 69 78 95 98 97 103 106 106 106 108 77 65 61 51 41 27 17 12 8 11 10 359 354 352 344 343 345 344 342 341 339 335 331 329 330 329 327 326 327 333 343 344
324 73 98 106 149 133 108 96 97 104 112 113 99 106 124 130 131 129 120 114 103 83 74 97 112 132 105 97 98 101 85 59 54 42 32 30 22 13 6 4 4 358 347 343 341 339 340 340 337 337 337 332 328 327 326 325 322 318 315 313 318 330 336
112 120 118 117 136 131 114 112 112 110 115 114 106 126 137 121 120 131 127 124 124 125 127 141 242 215 111 89 85 68 46 39 38 30 24 21 13 5 3 4 0 351 341 336 335 335 336 337 335 332 330 326 322 321 322 323 319 313 313 312 311 315 324
176 167 160 155 161 149 130 135 137 124 114 111 114 143 121 109 109 103 97 113 126 129 132 177 228 209 115 95 88 68 44 21 19 17 10 7 6 3 1 358 355 347 338 334 334 334 334 334 334 331 327 323 320 319 321 322 320 318 316 313 311 311 316
218 171 145 150 159 155 154 164 157 141 130 118 101 87 96 106 109 104 101 115 135 145 159 185 194 165 122 86 66 50 32 28 16 360 353 357 358 356 352 347 343 340 335 334 335 334 331 331 331 330 327 322 319 318 318 317 316 316 312 307 304 303 307
215 172 145 147 150 168 190 206 195 166 153 143 129 119 119 116 112 114 121 132 155 158 153 147 147 150 128 98 63 6 358 1 345 338 345 349 346 343 340 336 334 332 332 335 335 330 329 330 331 328 325 321 319 316 313 313 314 312 308 304 300 298 304
232 326 12 170 190 208 203 211 216 186 154 151 153 152 158 164 156 150 153 152 142 131 128 140 165 189 174 147 122 347 312 301 312 334 343 337 333 332 329 329 333 333 333 337 335 332 333 333 331 329 324 319 316 315 311 310 310 307 305 303 299 297 298
243 344 356 358 329 316 331 222 226 186 139 149 156 150 158 178 173 166 180 183 165 153 164 177 188 211 211 187 185 222 255 280 306 323 327 323 324 328 327 327 329 328 331 337 337 338 340 336 332 331 328 321 316 313 310 310 310 308 308 307 302 298 297
240 358 9 0 336 324 7 310 243 177 154 168 161 149 158 179 182 179 183 186 186 190 194 190 196 222 235 223 207 217 255 290 296 297 310 317 316 318 319 320 325 329 334 340 341 341 342 339 334 330 327 327 327 322 314 310 310 310 310 310 308 306 307
276 183 37 338 307 290 285 263 214 179 176 183 175 169 174 187 209 211 183 165 179 193 206 211 195 189 198 222 255 268 260 263 278 295 310 308 304 310 315 320 329 335 336 338 341 340 339 341 338 330 326 337 347 344 339 336 330 324 321 319 320 324 323
Height
723 726 723 716 725 737 736 737 745 738 719 724 745 748 735 737 757 761 758 775 777 772 778 770 764 772 770 770 774 774 778 777 776 781 781 783 786 783 781 781 780 782 783 786 788 788 790 791 794 798 800 800 800 801 803 806 808 810 811 813 814 816 818
726 717 722 720 720 727 736 746 744 729 721 724 736 755 757 751 762 766 764 779 786 787 792 781 772 777 778 777 780 780 780 780 781 783 782 785 789 787 784 781 781 783 784 787 788 788 789 789 791 797 800 801 801 801 802 804 807 808 810 812 813 815 816
730 719 730 737 727 721 727 733 729 732 747 746 739 759 777 765 763 777 780 779 782 787 789 783 779 782 784 784 785 788 788 786 787 788 785 786 789 790 787 783 784 785 786 789 791 791 792 790 791 796 801 801 799 800 801 803 806 807 808 810 811 813 815
732 733 743 753 745 730 725 728 729 732 741 742 737 745 760 760 763 783 796 795 793 786 776 777 782 782 786 789 789 793 795 793 793 793 790 789 790 792 789 786 787 786 787 790 790 792 793 792 793 796 798 798 797 798 800 802 804 805 807 809 810 812 814
738 749 748 746 745 740 737 741 743 738 732 730 733 735 738 749 762 775 796 813 805 781 769 775 780 782 786 789 790 794 797 798 798 797 795 793 793 793 789 787 788 788 790 791 789 790 791 791 792 794 796 796 796 797 798 800 803 804 806 808 810 812 813
748 747 734 728 731 732 734 738 738 734 731 736 750 752 737 736 751 763 787 818 809 777 770 775 776 781 785 784 788 794 797 800 801 800 798 797 796 795 791 789 789 790 791 792 790 790 791 791 793 794 795 795 796 797 797 799 801 803 805 807 810 812 813
741 732 722 723 727 727 728 729 726 724 728 737 754 762 746 738 752 757 773 809 810 778 768 774 774 778 781 782 786 792 796 800 802 803 801 799 799 797 795 792 790 791 793 794 792 792 792 793 793 794 794 794 796 796 796 798 800 801 804 805 808 812 813
736 730 726 726 726 730 735 731 724 724 727 728 736 747 746 750 764 768 780 810 811 781 769 774 775 775 778 781 785 790 796 799 801 804 804 803 803 800 798 797 795 796 798 800 800 799 796 795 795 795 795 795 796 796 796 797 799 801 803 804 806 810 813
761 754 752 748 740 739 740 734 729 728 727 729 737 742 747 757 761 763 787 817 810 783 775 777 776 777 780 783 784 788 793 797 800 803 804 805 805 804 803 803 802 801 802 804 805 804 800 798 798 799 798 798 798 797 798 798 799 801 803 804 805 807 811
784 782 778 764 750 745 742 735 734 734 734 741 749 750 758 766 759 758 786 812 805 787 783 782 780 781 785 787 788 790 792 795 799 801 804 805 806 806 806 806 805 804 804 805 804 803 801 801 802 802 801 801 800 799 799 799 801 802 803 804 805 806 809
776 779 772 751 741 748 752 747 742 741 741 744 749 758 767 766 766 778 789 794 796 794 790 788 787 787 790 792 794 795 795 796 797 799 803 804 805 806 806 805 806 806 805 805 804 804 804 804 805 804 803 803 802 801 801 800 801 802 803 804 804 805 807
764 763 759 746 744 750 749 746 746 746 748 748 751 763 763 755 773 800 794 781 792 796 789 789 792 792 794 795 796 797 797 796 797 798 800 802 803 805 805 806 807 806 806 805 804 804 804 805 806 805 804 805 805 804 804 802 801 802 803 803 802 804 805
759 757 757 751 752 752 745 745 751 751 753 754 757 760 754 749 774 799 793 785 792 791 787 790 792 791 794 795 794 796 796 796 797 798 800 803 804 804 806 807 807 807 807 806 805 805 805 806 807 805 805 807 808 809 811 809 805 804 804 803 803 803 804
759 758 760 755 755 757 754 754 756 756 756 755 755 755 749 751 770 783 786 792 794 788 788 790 789 790 792 793 794 796 799 800 800 801 804 804 806 807 807 807 807 808 807 807 807 807 806 807 808 809 810 810 809 811 815 815 809 806 806 805 804 803 805
769 761 760 760 759 761 762 760 757 759 761 758 756 755 751 759 775 779 783 796 799 791 788 790 793 794 794 796 799 799 800 801 802 806 808 808 808 809 809 809 809 808 808 809 808 808 808 808 808 809 811 811 811 813 817 817 811 808 808 807 806 806 806
782 764 761 765 761 762 768 766 760 762 764 762 760 758 754 763 780 787 791 802 804 795 791 794 798 799 799 801 802 801 801 801 803 808 811 812 812 811 811 812 811 810 811 811 811 810 810 810 810 809 810 810 812 813 815 814 811 809 809 808 808 808 807
785 765 760 763 764 776 782 769 760 761 762 761 760 757 755 761 774 788 797 801 798 794 794 798 801 801 802 802 803 805 806 804 806 807 809 813 815 813 813 814 813 813 813 813 814 813 812 812 812 813 812 812 812 812 811 811 809 809 809 810 810 811 811
786 767 758 765 781 794 784 757 747 753 757 759 760 759 761 765 771 780 789 792 792 793 795 798 801 803 803 803 804 805 806 807 811 811 810 814 816 815 815 815 815 816 815 815 816 815 814 814 814 815 815 814 813 813 812 811 810 811 811 812 813 814 814
783 769 768 789 802 791 766 749 746 747 748 751 755 762 767 770 774 781 787 790 792 792 793 793 797 801 803 803 804 805 806 807 810 811 813 815 816 817 816 816 817 818 817 818 817 816 816 816 815 816 816 815 815 814 813 813 813 813 814 814 815 816 816
783 779 784 800 798 774 759 760 757 752 753 756 763 776 780 775 777 784 789 791 790 789 791 793 796 801 803 804 805 806 807 806 805 808 813 815 816 817 817 816 818 819 819 819 819 818 817 817 817 817 817 817 817 816 815 815 815 815 816 816 816 816 817
784 787 785 785 787 780 773 772 766 760 763 765 771 786 790 780 778 783 788 792 791 789 792 796 799 801 805 810 811 807 808 809 806 808 813 815 816 817 817 817 818 820 821 820 820 819 818 818 819 818 818 818 817 817 816 816 815 816 816 817 817 817 818
781 787 787 784 794 795 780 771 766 761 761 762 765 781 791 784 779 782 786 791 792 791 793 796 799 804 812 818 814 805 806 810 810 811 814 816 817 818 818 818 819 820 821 821 820 820 819 820 820 819 819 819 818 818 818 817 817 817 817 818 818 818 819
780 787 794 790 794 792 775 767 767 762 762 763 768 787 795 785 778 781 784 788 789 787 791 794 797 805 818 823 815 804 804 809 812 815 817 818 819 819 818 820 821 821 822 821 821 821 820 821 821 820 820 820 820 821 820 819 819 819 819 820 820 820 820
782 786 790 784 784 783 772 767 769 766 764 768 785 805 800 779 775 779 781 785 786 784 788 794 798 804 813 817 813 807 807 811 814 817 819 820 821 820 820 821 822 822 822 822 822 822 821 822 822 821 821 822 822 822 822 821 821 820 821 821 821 821 821
781 784 787 783 782 779 770 768 770 767 769 780 799 807 790 773 776 779 776 782 787 786 788 794 801 805 808 810 811 809 810 814 815 818 820 821 822 822 822 823 823 823 823 823 823 823 823 824 823 823 823 823 823 823 823 823 822 822 822 822 821 821 821
781 780 782 787 790 780 768 769 770 770 781 795 798 791 779 775 779 779 778 784 789 790 793 798 804 806 806 809 811 811 813 817 818 820 822 823 824 825 824 824 824 825 825 825 825 825 825 825 825 825 825 824 824 824 824 823 823 823 823 822 822 821 821
781 781 782 792 796 781 767 772 777 779 789 795 789 783 781 781 780 780 784 789 793 796 799 803 808 808 808 812 814 814 816 819 819 821 824 824 826 826 825 825 826 826 827 827 827 828 827 827 827 826 826 826 825 825 824 824 824 823 823 823 822 822 821
779 788 790 791 788 775 768 776 783 785 787 786 783 785 787 787 786 787 790 794 798 801 804 808 811 812 812 815 816 817 819 820 820 823 824 825 827 827 826 827 827 828 829 828 829 829 828 828 828 827 827 826 826 826 825 824 824 824 823 823 822 822 822
777 785 787 783 777 771 772 779 783 784 785 784 784 787 788 789 791 791 795 800 804 807 810 812 814 813 814 815 816 818 820 820 822 825 825 826 828 827 827 828 828 828 829 828 829 829 828 828 828 827 827 827 826 825 825 824 824 823 823 822 822 822 822
777 780 779 776 776 775 777 781 783 785 787 787 787 788 789 791 793 793 796 802 806 810 813 814 814 814 814 816 817 819 820 822 824 826 826 827 828 828 829 829 829 829 829 828 828 828 828 828 828 827 827 827 825 825 824 824 823 823 822 821 821 821 821
782 786 780 776 778 778 779 781 783 785 788 789 790 790 791 793 796 798 799 802 806 811 814 815 816 815 815 816 819 820 821 823 824 825 827 828 828 829 829 830 830 830 829 828 828 827 827 827 827 826 826 825 825 824 823 823 822 822 821 821 820 820 820
782 784 779 775 777 778 778 781 783 786 790 792 792 793 794 796 800 802 803 805 808 811 813 815 816 816 816 818 820 820 822 823 824 826 827 827 828 829 830 830 830 830 829 829 828 828 827 827 826 826 825 824 824 823 823 822 822 821 820 820 819 819 819
778 780 779 779 783 783 781 781 781 783 789 792 794 796 799 800 803 806 807 808 809 810 812 814 816 817 818 819 821 822 823 824 825 826 826 827 828 829 830 830 830 829 829 829 829 828 828 827 826 825 825 824 823 822 821 821 820 820 820 819 818 818 817
789 789 785 783 787 788 785 782 781 782 785 790 793 795 798 801 804 807 809 810 811 811 813 815 817 818 819 820 822 823 824 824 825 826 826 828 828 828 829 829 829 829 829 829 829 829 828 827 826 825 824 823 822 821 820 820 819 819 818 817 816 816 816
801 797 791 786 788 791 787 783 782 783 784 788 791 794 798 801 803 806 808 809 810 812 814 815 816 817 818 819 821 822 823 825 825 826 827 828 828 828 829 828 828 829 829 829 829 829 828 828 827 825 823 822 821 820 819 818 818 817 817 816 815 815 814
799 796 793 791 792 794 791 787 785 785 786 788 791 794 797 800 802 805 807 808 810 813 813 814 815 817 817 817 819 820 823 825 826 826 828 828 828 829 829 828 828 828 828 829 829 829 829 829 827 826 824 822 820 819 818 817 817 816 816 815 814 814 814
797 795 794 793 792 791 790 788 787 786 787 788 790 794 797 800 801 802 803 805 809 812 812 812 814 816 816 817 818 821 823 825 826 827 827 828 829 829 828 828 828 828 828 829 829 828 828 828 827 826 824 822 820 819 817 816 816 815 815 814 814 814 814